Theta_e
325 325 327 329 334 339 341 343 349 347 351 354 356 355 352 350 347 346 345 344 344 343 343 342 341 340 343 346 347 348 346 345 349 346 346 347 347 346 348 348 349 348 349 350
325 324 327 329 331 335 339 340 349 346 343 350 356 356 353 351 349 348 347 345 345 344 344 342 341 340 342 346 347 348 348 345 350 344 349 347 351 348 348 349 351 350 348 349
326 325 326 328 329 331 335 339 347 348 345 346 351 358 355 352 353 350 349 347 346 345 345 342 344 342 341 344 346 347 349 347 347 345 348 349 346 346 350 349 352 348 348 348
326 326 326 327 328 330 333 338 343 347 339 349 349 364 357 356 355 353 351 349 348 347 346 345 345 343 341 342 343 347 349 347 343 348 346 348 350 348 350 348 351 350 348 349
326 327 327 327 328 330 334 339 341 342 340 339 342 356 354 339 355 354 352 351 348 346 347 346 348 346 345 343 343 345 348 348 340 345 345 347 346 350 348 350 347 351 347 349
326 326 327 328 329 334 335 335 340 340 339 341 343 343 359 348 345 352 351 350 350 349 346 347 347 346 348 342 341 345 348 347 346 341 347 349 349 345 351 348 349 348 346 341
327 327 327 327 330 332 333 335 341 340 338 338 341 343 355 345 343 341 353 351 351 351 349 345 348 347 346 343 344 346 348 344 342 342 344 346 348 352 349 348 347 352 350 351
326 331 327 329 330 333 332 336 339 340 338 336 336 350 348 339 347 349 350 350 343 342 352 348 348 349 347 348 344 346 347 345 341 342 341 341 340 341 349 350 353 347 351 352
328 329 328 331 333 334 332 335 335 336 335 336 343 344 344 347 347 347 348 351 353 350 352 352 348 349 349 348 346 345 344 345 343 341 347 346 344 346 345 348 347 347 349 350
329 330 330 329 329 331 332 332 335 336 338 337 345 347 351 349 348 345 345 345 348 349 354 353 352 352 349 349 349 349 347 346 347 347 347 348 346 343 348 349 350 351 350 349
327 329 327 326 328 330 331 332 333 334 334 336 345 346 345 348 346 344 343 344 344 344 345 349 351 349 350 350 347 349 351 349 350 354 356 356 351 348 344 345 342 349 349 353
327 327 328 326 325 326 330 331 332 334 338 340 348 349 342 343 342 341 340 341 342 340 340 341 339 346 347 346 342 340 347 352 354 356 357 356 356 355 355 347 344 343 341 341
324 327 329 327 325 325 327 328 330 331 333 339 339 344 341 342 341 340 338 337 337 338 337 337 340 335 335 336 342 347 346 344 350 355 356 356 355 355 356 355 353 353 349 344
322 324 328 328 327 326 326 327 329 329 331 334 341 343 343 341 340 338 337 335 335 335 336 334 335 338 340 343 344 345 343 339 348 351 351 355 356 355 355 354 354 355 354 352
321 323 325 327 324 324 325 325 327 327 329 340 343 342 343 340 338 337 336 336 335 335 334 333 334 333 332 333 337 340 344 345 347 348 350 350 352 356 357 356 355 353 355 354
321 322 324 324 323 322 324 324 324 325 326 332 338 341 338 337 335 335 334 333 333 333 332 332 332 332 332 332 331 331 337 341 344 345 346 347 342 351 354 353 353 356 354 353
322 322 322 325 323 322 321 322 322 323 325 336 340 336 334 336 334 334 332 331 331 329 328 327 328 328 328 328 330 331 330 332 339 341 341 345 346 348 351 352 353 354 354 352
324 325 324 325 323 324 323 322 322 322 323 331 336 335 333 331 329 329 327 326 325 325 324 324 324 324 325 324 325 329 330 331 329 330 335 337 341 344 346 348 349 351 353 353
320 323 323 323 323 324 322 321 320 321 322 329 333 331 330 328 326 324 324 323 323 322 322 321 320 321 323 322 322 324 326 327 328 328 327 325 329 337 342 343 345 348 348 351
318 319 323 324 323 323 324 321 320 319 322 324 328 328 327 326 328 325 321 320 320 319 319 319 319 319 321 320 321 322 323 324 325 325 325 326 326 322 325 332 340 342 343 344
319 319 320 322 322 323 322 319 318 319 324 322 324 324 323 324 325 323 321 320 319 318 318 317 317 318 319 318 319 320 321 323 322 320 318 321 319 320 326 323 323 326 336 343
321 321 321 320 321 322 321 319 319 325 323 321 323 322 322 321 320 319 318 318 317 317 317 317 316 317 317 317 318 319 319 319 319 317 316 314 316 317 317 317 320 321 324 327
323 322 325 324 326 322 320 322 321 321 320 320 320 319 319 318 317 317 316 316 316 316 316 315 315 315 316 317 317 317 318 317 318 317 315 315 313 314 317 318 316 322 325 327
320 319 322 323 324 322 320 320 320 320 319 317 317 316 315 315 315 315 315 315 315 314 313 313 313 313 313 313 313 314 314 315 315 316 317 317 317 317 318 319 321 323 324 326
322 320 320 321 320 319 319 317 316 315 315 314 313 313 314 314 314 314 314 313 312 312 312 312 312 312 312 311 311 311 311 311 312 315 317 317 317 317 317 319 320 320 321 321
318 318 322 323 318 319 318 316 315 314 313 313 313 313 313 313 313 313 313 313 312 311 311 311 311 311 310 310 310 308 309 309 309 310 312 315 316 317 317 317 318 318 318 318
Wind_Speed
17 12 17 22 20 20 19 18 16 2 13 14 18 22 18 24 22 22 20 19 22 22 22 21 20 20 20 19 19 18 18 18 15 14 12 14 11 11 8 7 7 7 3 7
11 18 18 19 19 21 23 16 18 13 8 10 21 17 21 24 23 23 22 23 18 23 23 23 23 22 22 21 21 21 18 20 18 14 13 8 11 10 8 7 7 6 4 5
18 15 21 19 18 22 22 18 16 7 8 11 13 15 20 20 25 30 24 23 24 24 22 25 23 24 23 23 23 23 21 19 22 15 12 11 17 12 8 8 8 7 5 4
20 19 19 17 20 17 19 12 13 12 16 13 24 9 19 22 17 21 25 23 26 26 19 28 25 22 24 26 23 23 23 20 25 21 16 9 7 9 10 9 12 8 6 6
19 17 17 17 18 18 16 17 24 25 15 15 17 8 3 13 17 17 24 24 29 30 21 30 28 28 23 27 24 25 25 22 22 24 20 16 13 11 16 14 8 10 8 9
17 18 13 12 15 13 22 14 13 15 10 13 13 11 13 6 9 16 22 21 26 26 27 30 30 31 25 27 27 25 24 24 22 24 22 18 10 9 3 15 12 9 7 8
18 20 12 14 17 19 20 13 10 10 10 12 20 15 9 16 6 33 22 26 23 23 24 32 34 33 32 31 31 26 23 22 23 20 21 16 14 9 12 11 10 14 11 9
14 12 17 15 20 16 16 19 12 16 13 13 16 10 10 14 32 6 16 10 8 25 28 32 36 37 35 31 35 30 24 22 22 20 19 18 16 13 11 11 10 13 3 16
18 12 17 13 15 6 16 17 17 16 18 15 9 19 20 17 13 11 10 12 11 34 44 34 35 38 35 33 35 35 25 23 23 23 21 19 16 12 10 10 12 11 7 2
12 8 16 11 4 7 16 12 17 15 15 14 14 19 17 18 11 6 8 14 16 22 16 14 10 25 34 34 31 29 31 24 22 22 22 22 19 16 17 13 11 10 6 12
16 12 10 12 14 14 10 12 14 17 14 11 7 6 18 19 13 9 10 12 11 18 24 18 11 10 21 18 34 20 10 25 23 22 23 20 19 18 20 22 20 18 15 7
13 8 11 15 13 18 21 14 16 12 17 6 6 3 6 16 16 14 13 16 17 21 24 21 17 17 16 12 14 26 26 17 23 22 24 24 21 18 17 19 20 15 17 21
10 8 5 13 5 6 10 16 15 15 16 5 9 7 13 16 19 16 15 19 20 23 23 22 20 20 19 12 8 6 5 11 5 24 27 23 22 22 20 19 15 16 15 13
7 9 9 6 5 15 17 16 14 12 10 6 16 17 19 16 17 15 17 20 22 24 24 24 25 22 19 12 10 13 21 23 16 7 12 24 23 21 20 21 17 14 16 17
5 7 5 12 9 12 15 18 12 10 14 12 15 20 21 17 17 17 18 20 23 24 23 23 22 20 19 23 19 11 8 7 19 15 5 8 18 18 18 15 18 19 19 17
6 7 6 10 1 10 7 5 7 7 13 9 21 9 15 27 26 17 16 18 19 20 20 20 19 19 20 21 22 22 18 9 4 4 3 7 17 2 15 20 19 16 18 25
6 6 9 10 7 4 7 5 6 9 9 18 17 10 17 19 20 20 18 16 17 17 17 16 16 16 17 17 18 20 21 17 11 7 6 1 9 13 12 13 14 13 16 17
5 8 8 9 11 10 4 6 5 11 4 10 20 22 18 20 21 17 14 12 12 13 13 13 13 12 13 14 15 16 16 19 17 14 13 11 6 9 10 16 17 17 17 16
10 6 8 10 11 7 5 2 6 5 10 11 15 9 21 24 21 11 10 10 9 9 9 10 9 9 9 11 11 13 11 12 13 15 15 13 10 8 7 12 14 18 24 23
8 7 9 10 11 11 8 12 7 3 10 13 16 19 17 21 9 10 11 9 7 6 6 6 7 6 6 8 8 9 9 8 10 10 11 12 13 13 11 10 10 15 20 23
6 5 10 10 8 3 10 6 2 7 2 20 17 16 16 8 14 20 13 8 4 3 3 5 6 6 6 6 7 7 7 8 9 10 10 11 12 12 13 13 12 12 13 18
6 4 6 8 9 8 12 6 3 7 10 10 8 14 20 16 14 11 8 6 3 1 2 3 5 5 7 8 8 8 8 10 12 13 13 13 13 14 14 17 14 14 14 16
4 7 4 8 3 8 9 16 15 14 13 11 12 10 9 10 9 7 6 5 4 4 3 3 4 5 6 7 8 8 9 10 13 17 18 17 17 16 16 17 19 18 11 17
5 5 4 3 6 5 7 9 10 10 11 9 9 11 10 10 10 9 8 6 4 3 3 3 4 5 7 9 9 8 12 14 14 14 17 19 19 17 16 16 13 15 17 14
7 4 4 7 5 4 5 5 7 8 11 12 11 12 11 12 10 8 7 5 4 3 3 4 3 4 6 8 9 10 12 13 14 14 13 15 17 18 18 17 18 18 17 20
9 8 4 4 9 8 7 13 12 11 12 12 12 12 11 11 10 8 8 5 4 1 3 4 5 5 7 8 8 10 11 14 17 17 15 15 18 17 16 19 21 22 22 21
Wind_Direction
205 217 214 214 213 234 217 218 180 11 131 158 143 140 156 156 164 166 176 172 166 169 171 170 171 172 166 164 172 170 177 178 175 168 169 161 156 171 173 205 148 185 209 155
181 221 218 230 224 234 255 258 127 155 93 40 137 160 163 159 172 184 194 178 176 174 180 171 176 177 174 171 177 178 187 188 168 166 190 170 188 176 170 208 173 205 194 190
219 214 235 211 226 224 238 242 167 168 109 238 148 195 160 181 177 177 190 186 186 193 195 172 184 178 177 179 182 187 193 200 166 175 196 173 194 191 196 217 191 188 193 152
233 236 201 224 232 221 226 235 122 131 183 176 187 144 179 168 182 169 182 191 189 196 212 175 181 179 186 185 188 194 191 206 177 178 188 190 196 146 182 193 185 191 178 169
220 229 203 223 222 214 234 168 181 209 213 215 197 112 133 29 173 162 175 184 196 202 212 183 179 183 192 181 188 199 194 205 189 184 188 185 205 183 197 193 199 179 185 205
239 221 219 217 235 223 239 269 160 244 220 231 205 277 157 170 259 180 174 194 194 197 202 185 189 188 188 184 183 198 196 198 192 195 196 189 192 180 180 169 176 203 215 186
226 225 207 216 217 232 228 238 199 210 220 239 192 204 107 106 266 256 179 183 192 203 202 194 188 190 189 187 181 192 202 195 192 198 203 197 196 180 180 182 171 198 202 218
212 199 206 203 218 212 216 231 211 205 220 230 249 145 172 163 151 294 122 165 183 269 219 202 196 193 197 189 182 188 204 205 200 203 202 206 209 207 200 192 203 205 223 209
198 217 184 208 230 325 200 240 251 222 228 230 113 109 152 138 100 91 93 61 158 221 229 202 202 193 196 194 189 187 199 210 210 211 212 215 216 200 185 210 199 208 229 236
288 303 163 185 306 242 273 230 239 247 264 253 137 158 152 144 121 102 72 51 20 33 62 191 193 212 196 200 183 185 200 210 219 211 214 216 219 208 200 200 213 196 230 217
284 148 184 197 211 226 219 247 250 262 256 235 171 59 133 120 127 125 97 76 47 53 50 87 177 121 162 193 181 213 226 204 221 210 216 211 220 217 202 206 216 206 199 212
284 305 164 193 215 223 247 239 234 240 249 77 98 329 9 115 117 108 99 81 67 62 67 65 79 113 159 156 185 224 263 175 206 213 209 211 217 210 224 213 215 216 212 222
334 244 213 159 181 231 235 240 265 268 266 173 154 150 156 121 108 95 90 84 71 72 59 65 79 96 104 93 131 208 182 190 222 202 206 207 212 210 211 233 228 219 223 216
310 292 16 345 350 207 215 235 237 265 279 314 115 149 121 122 111 108 97 90 85 79 78 65 59 60 67 79 105 139 195 217 232 189 220 187 200 210 211 217 231 232 230 236
306 296 331 178 310 328 205 222 226 244 265 78 137 154 139 130 115 119 103 94 89 85 79 76 74 64 60 64 65 68 96 142 193 234 187 169 190 191 198 213 225 225 227 235
258 289 321 282 172 325 350 85 27 243 266 133 71 109 112 132 135 125 112 100 93 86 79 75 72 67 56 42 46 51 52 52 220 276 58 186 228 313 185 214 224 231 237 229
278 270 273 254 240 230 271 249 185 263 288 130 141 170 130 144 127 124 118 106 97 90 82 75 66 61 55 51 42 32 36 39 40 38 18 87 191 215 200 212 217 229 238 249
218 263 264 260 249 224 251 8 263 214 185 57 137 151 151 123 108 108 114 107 96 93 85 75 67 60 54 43 40 58 28 22 28 39 35 33 335 272 256 239 239 237 240 244
268 260 248 253 236 235 187 229 234 202 145 115 132 129 116 122 115 116 114 115 101 93 87 77 66 58 53 47 34 55 43 28 21 23 19 18 22 12 331 285 272 260 254 250
274 207 272 260 249 257 21 87 21 262 176 145 139 130 142 145 178 154 149 131 112 89 74 65 58 60 50 36 20 34 27 26 16 7 9 5 358 2 4 354 320 284 269 269
234 251 233 239 250 199 114 88 33 199 77 142 155 164 162 126 74 125 137 130 118 82 45 39 36 39 30 14 8 12 4 357 339 333 340 341 340 350 346 329 339 338 315 286
206 212 242 250 253 235 128 150 237 82 96 119 125 139 104 114 124 132 131 134 138 108 9 0 360 359 358 357 354 348 339 313 308 313 315 314 318 322 324 323 326 324 335 329
295 27 338 12 66 82 51 96 117 121 117 113 124 132 139 151 153 153 147 133 119 101 76 19 1 349 350 332 303 325 303 308 321 313 305 301 303 309 314 313 320 323 329 317
230 293 293 356 122 131 103 109 120 128 151 149 153 150 171 166 153 149 141 130 111 69 59 34 7 353 342 343 335 329 328 319 303 308 315 316 307 304 303 311 311 296 304 295
281 359 312 272 251 132 152 176 161 144 146 154 153 159 160 155 156 154 151 140 119 80 44 23 8 346 339 330 326 331 316 309 317 304 306 309 314 308 302 298 290 281 276 286
226 252 210 256 284 260 228 189 178 171 174 167 167 160 165 169 164 163 157 153 138 64 12 3 358 354 344 343 332 319 335 322 323 325 314 304 296 292 291 289 293 288 287 281